Find Hai Yang 1-04

NORAD ID: 45721 Int'l Des: 2020-036 Owner: GYZ/CASC Country: CN operational
LEOCIRCULARRETROGRADESSO

Live-Position

3D-Globus wird geladen...

Über Hai Yang 1-04

Beschreibung wird geladen...

Nächste Überflüge

Passes for default location (London). Set your location on the main map for personalized predictions.

Höhenverlauf

Loading altitude history...

Zweizeiliger Elementsatz

1 45721U 20036A 26104.83480767 -.00000055 00000-0 -41546-5 0 9993
2 45721 98.4508 47.9046 0002567 9.5711 350.5523 14.34220659305892
Epoch: 14. Apr. 2026 • Age: 7 hours

Aktueller Status

Höhe 788.7 km
Geschwindigkeit 7.47 km/s
Subsatellitenpunkt 69.09°N, 136.23°E
Startdatum 10. Juni 2020
Alter 5.8 years
Typ other

Technische Details

Klassifizierung Payload
Masse 442.00 kg
Trockenmasse 429.00 kg
Gesamtmasse 442.00 kg
Länge 1.40 m
Durchmesser 1.00 m
Spannweite 7.50 m
Form Box + 2 Pan
Hersteller DFHZ
Bus-Typ CAST-968
Phasenstatus In Orbit
Besitzer/Staat GYZ/CASC/CN

Most Searched